Weather History for Monett, MO

Change the Weather History Date:

Saturday, August 3, 2013

  Actual Average (KJLN) Record (KJLN)
Temperature  
Mean Temperature 77 °F 81 °F  
Max Temperature 86 °F 92 °F 105 °F (2011)
Min Temperature 68 °F 70 °F 53 °F (1950)
Degree Days  
Heating Degree Days 0 0  
Month to date heating degree days 0  
Since 1 June heating degree days 5  
Since 1 July heating degree days 0  
Cooling Degree Days 12 16  
Month to date cooling degree days 48  
Year to date cooling degree days 1019  
Since 1 June cooling degree days 839  
Growing Degree Days 27 (Base 50)    
Moisture  
Dew Point 71 °F    
Average Humidity 86    
Maximum Humidity 100    
Minimum Humidity 62    
Precipitation  
Precipitation 1.92 in 0.10 in 1.60 in (1990)
Month to date precipitation 0.29  
Year to date precipitation 27.91  
Sea Level Pressure  
Sea Level Pressure 30.05 in    
Wind  
Wind Speed 6 mph (SE)    
Max Wind Speed 18 mph    
Max Gust Speed 32 mph    
Visibility 9 miles    
Events Rain , Thunderstorm    
T = Trace of Precipitation, MM = Missing Value Source: NWS Daily Summary

Daily Weather History Graph

Daily Weather History Graph

Search for Another Location

Airport:

Trip Planner

Search our weather history database for the weather conditions in past years. The results will help you decide how hot, cold, wet, or windy it might be!

Date:

Astronomy

Aug. 03, 2013 Rise Set
Actual Time 6:23 AM CDT 8:20 PM CDT
Civil Twilight 5:54 AM CDT 8:48 PM CDT
Nautical Twilight 5:20 AM CDT 9:23 PM CDT
Astronomical Twilight 4:42 AM CDT 10:00 PM CDT
Moon 3:34 AM CDT (8/3) 6:02 PM CDT (8/3)
Length of Visible Light 14h 54m
Length of Day
13h 57m
Waning Crescent, 9% of the Moon is Illuminated
Aug 3
Waning Crescent
Aug 6
New
Aug 14
First Quarter
Aug 20
Full
Aug 28
Last Quarter

Hourly Weather History & Observations

Time (CDT) Temp. Heat Index Dew Point Humidity Pressure Visibility Wind Dir Wind Speed Gust Speed Precip Events Conditions
12:15 AM 73.4 °F - 73.4 °F 100% 29.94 in 7.0 mi East 4.6 mph - N/A   Clear
12:35 AM 75.2 °F - 73.4 °F 94% 29.94 in 7.0 mi East 4.6 mph - N/A   Clear
12:55 AM 73.4 °F - 73.4 °F 100% 29.94 in 7.0 mi ESE 5.8 mph - N/A   Clear
1:15 AM 73.4 °F - 73.4 °F 100% 29.94 in 7.0 mi SE 5.8 mph - N/A   Clear
1:35 AM 73.4 °F - 73.4 °F 100% 29.93 in 7.0 mi SE 5.8 mph - N/A   Clear
1:55 AM 75.2 °F - 73.4 °F 94% 29.92 in 7.0 mi SSE 5.8 mph - N/A   Clear
2:15 AM 75.2 °F - 73.4 °F 94% 29.91 in 7.0 mi SSE 5.8 mph - N/A   Clear
2:35 AM 75.2 °F - 73.4 °F 94% 29.91 in 7.0 mi South 4.6 mph - N/A   Clear
2:55 AM 77.0 °F - 73.4 °F 89% 29.92 in 7.0 mi South 4.6 mph - N/A   Clear
3:15 AM 77.0 °F - 73.4 °F 89% 29.92 in 10.0 mi South 6.9 mph - N/A   Scattered Clouds
3:35 AM 77.0 °F - 73.4 °F 89% 29.91 in 10.0 mi South 9.2 mph - N/A   Scattered Clouds
3:55 AM 77.0 °F - 73.4 °F 89% 29.91 in 10.0 mi SSW 10.4 mph - N/A Thunderstorm Thunderstorm
4:15 AM 77.0 °F - 73.4 °F 89% 29.96 in 10.0 mi WNW 12.7 mph - N/A Rain Light Rain
4:35 AM 77.0 °F - 75.2 °F 94% 29.96 in 7.0 mi West 10.4 mph - N/A Rain , Thunderstorm Light Thunderstorms and Rain
4:55 AM 69.8 °F - 69.8 °F 100% 30.04 in 0.5 mi North 18.4 mph 32.2 mph 0.85 in Rain , Thunderstorm Light Thunderstorms and Rain
5:15 AM 69.8 °F - 69.8 °F 100% 30.05 in 4.0 mi North 11.5 mph - 0.23 in Rain , Thunderstorm Heavy Thunderstorms and Rain
5:35 AM 68.0 °F - 68.0 °F 100% 30.05 in 4.0 mi NNE 5.8 mph - 0.49 in Rain , Thunderstorm Heavy Thunderstorms and Rain
5:55 AM 68.0 °F - 68.0 °F 100% 30.09 in 4.0 mi SW 6.9 mph - 0.64 in Rain , Thunderstorm Rain
6:15 AM 68.0 °F - 68.0 °F 100% 30.06 in 5.0 mi NNW 6.9 mph - 0.12 in Rain , Thunderstorm Heavy Thunderstorms and Rain
6:35 AM 68.0 °F - 68.0 °F 100% 30.08 in 4.0 mi SSW 9.2 mph - 0.26 in Rain , Thunderstorm Heavy Thunderstorms and Rain
6:55 AM 68.0 °F - 68.0 °F 100% 30.09 in 5.0 mi Calm Calm - 0.35 in Rain , Thunderstorm Heavy Thunderstorms and Rain
7:15 AM 68.0 °F - 68.0 °F 100% 30.08 in 7.0 mi ENE 8.1 mph - 0.04 in Rain Light Rain
7:35 AM 68.0 °F - 68.0 °F 100% 30.08 in 10.0 mi SE 8.1 mph - 0.05 in Rain , Thunderstorm Light Thunderstorms and Rain
7:55 AM 68.0 °F - 68.0 °F 100% 30.08 in 10.0 mi SE 8.1 mph - 0.06 in Rain Light Rain
8:15 AM 68.0 °F - 66.2 °F 94% 30.08 in 10.0 mi SE 9.2 mph - N/A Rain Light Rain
8:35 AM 68.0 °F - 68.0 °F 100% 30.07 in 10.0 mi SE 8.1 mph - 0.01 in Rain , Thunderstorm Light Thunderstorms and Rain
8:55 AM 68.0 °F - 68.0 °F 100% 30.08 in 10.0 mi SSE 10.4 mph - 0.01 in Rain , Thunderstorm Light Thunderstorms and Rain
9:15 AM 69.8 °F - 68.0 °F 94% 30.08 in 10.0 mi SSE 12.7 mph 18.4 mph N/A   Overcast
9:35 AM 69.8 °F - 68.0 °F 94% 30.09 in 10.0 mi SSE 12.7 mph - N/A   Scattered Clouds
9:55 AM 69.8 °F - 68.0 °F 94% 30.09 in 10.0 mi SSE 10.4 mph - N/A   Clear
10:15 AM 69.8 °F - 68.0 °F 94% 30.10 in 10.0 mi SE 9.2 mph 16.1 mph N/A   Scattered Clouds
10:35 AM 71.6 °F - 69.8 °F 94% 30.10 in 10.0 mi ESE 9.2 mph - 0.01 in   Mostly Cloudy
10:55 AM 71.6 °F - 69.8 °F 94% 30.11 in 10.0 mi ESE 6.9 mph - 0.01 in   Scattered Clouds
11:15 AM 73.4 °F - 69.8 °F 88% 30.10 in 10.0 mi ESE 8.1 mph - N/A   Clear
11:35 AM 75.2 °F - 69.8 °F 83% 30.09 in 10.0 mi SSE 9.2 mph - N/A   Clear
11:55 AM 77.0 °F - 69.8 °F 78% 30.07 in 10.0 mi SSE 10.4 mph - N/A   Clear
12:15 PM 78.8 °F - 69.8 °F 74% 30.07 in 10.0 mi SSE 10.4 mph - N/A   Clear
12:35 PM 78.8 °F - 71.6 °F 78% 30.06 in 10.0 mi SSW 8.1 mph - N/A   Clear
12:55 PM 78.8 °F - 69.8 °F 74% 30.06 in 10.0 mi South 5.8 mph - N/A   Clear
1:15 PM 80.6 °F 83.9 °F 69.8 °F 70% 30.06 in 10.0 mi SSE 4.6 mph - N/A   Clear
1:35 PM 80.6 °F 83.9 °F 69.8 °F 70% 30.06 in 10.0 mi SSW 4.6 mph - N/A   Clear
1:55 PM 82.4 °F 87.2 °F 71.6 °F 70% 30.06 in 10.0 mi South 4.6 mph - N/A   Clear
2:15 PM 82.4 °F 86.3 °F 69.8 °F 66% 30.05 in 10.0 mi WSW 5.8 mph - N/A   Mostly Cloudy
2:35 PM 84.2 °F 88.4 °F 69.8 °F 62% 30.05 in 10.0 mi SW 5.8 mph - N/A   Mostly Cloudy
2:55 PM 84.2 °F 89.6 °F 71.6 °F 66% 30.05 in 10.0 mi West 3.5 mph - N/A   Scattered Clouds
3:15 PM 84.2 °F 89.6 °F 71.6 °F 66% 30.05 in 10.0 mi WNW 3.5 mph - N/A   Scattered Clouds
3:35 PM 86.0 °F 91.8 °F 71.6 °F 62% 30.05 in 10.0 mi Calm Calm - N/A   Scattered Clouds
3:55 PM 86.0 °F 91.8 °F 71.6 °F 62% 30.05 in 10.0 mi NNW 3.5 mph - N/A   Scattered Clouds
4:15 PM 86.0 °F 91.8 °F 71.6 °F 62% 30.05 in 10.0 mi NW 3.5 mph - N/A   Scattered Clouds
4:35 PM 84.2 °F 90.9 °F 73.4 °F 70% 30.05 in 10.0 mi Calm Calm - N/A   Mostly Cloudy
4:55 PM 82.4 °F 88.2 °F 73.4 °F 74% 30.05 in 10.0 mi NNE 5.8 mph - N/A   Mostly Cloudy
5:15 PM 82.4 °F 88.2 °F 73.4 °F 74% 30.05 in 10.0 mi NE 4.6 mph - N/A   Mostly Cloudy
5:35 PM 82.4 °F 88.2 °F 73.4 °F 74% 30.05 in 10.0 mi NE 3.5 mph - N/A   Mostly Cloudy
5:55 PM 82.4 °F 88.2 °F 73.4 °F 74% 30.05 in 10.0 mi ENE 3.5 mph - N/A   Mostly Cloudy
6:15 PM 82.4 °F 89.5 °F 75.2 °F 79% 30.05 in 10.0 mi Calm Calm - N/A Rain Light Rain
6:35 PM 82.4 °F 89.5 °F 75.2 °F 79% 30.05 in 10.0 mi Calm Calm - N/A   Overcast
6:55 PM 82.4 °F 88.2 °F 73.4 °F 74% 30.05 in 10.0 mi Calm Calm - N/A   Overcast
7:15 PM 80.6 °F 86.2 °F 75.2 °F 84% 30.05 in 10.0 mi NNE 3.5 mph - N/A   Mostly Cloudy
7:35 PM 80.6 °F 85.4 °F 73.4 °F 79% 30.06 in 10.0 mi NE 4.6 mph - N/A   Clear
7:55 PM 78.8 °F - 73.4 °F 83% 30.07 in 10.0 mi NE 4.6 mph - N/A   Scattered Clouds
8:15 PM 77.0 °F - 73.4 °F 89% 30.07 in 10.0 mi NE 3.5 mph - N/A   Scattered Clouds
8:35 PM 77.0 °F - 73.4 °F 89% 30.08 in 10.0 mi NE 3.5 mph - N/A   Scattered Clouds
8:55 PM 77.0 °F - 73.4 °F 89% 30.08 in 10.0 mi ENE 4.6 mph - N/A   Mostly Cloudy
9:15 PM 77.0 °F - 73.4 °F 89% 30.09 in 10.0 mi ENE 4.6 mph - N/A   Overcast
9:35 PM 77.0 °F - 73.4 °F 89% 30.09 in 10.0 mi East 5.8 mph - N/A   Scattered Clouds
9:55 PM 77.0 °F - 71.6 °F 83% 30.10 in 10.0 mi East 5.8 mph - N/A   Scattered Clouds
10:15 PM 77.0 °F - 71.6 °F 83% 30.10 in 10.0 mi East 5.8 mph - N/A   Mostly Cloudy
10:35 PM 77.0 °F - 71.6 °F 83% 30.11 in 10.0 mi East 4.6 mph - N/A   Scattered Clouds
10:55 PM 73.4 °F - 71.6 °F 94% 30.11 in 10.0 mi ESE 3.5 mph - N/A   Clear
11:15 PM 73.4 °F - 71.6 °F 94% 30.12 in 10.0 mi ESE 4.6 mph - N/A   Clear
11:35 PM 73.4 °F - 71.6 °F 94% 30.12 in 10.0 mi SE 3.5 mph - N/A   Clear
11:55 PM 73.4 °F - 71.6 °F 94% 30.12 in 10.0 mi ESE 5.8 mph - N/A   Clear